Location: Unspecified
(0.0000°N, 0.0000°E)
Time: 03:48:10
(UTC+02:00)

ARIANE 5 DEB (SYLDA) - Visible Passes

Search period start: 19 April 2014 00:00
Search period end: 29 April 2014 00:00
Orbit: 170 x 15789 km, 1.4° (Epoch: 18 April)

Date Brightness Start Highest point End Pass type
(mag) Time Alt. Az. Time Alt. Az. Time Alt. Az.
19 Apr 9.9 00:00:00 19° E 23:59:45 19° E 00:45:11 10° E visible
19 Apr 8.9 04:29:21 57° W 06:07:06 89° N 07:24:05 10° E visible
19 Apr 6.2 22:17:53 10° W 22:26:45 87° N 00:02:17 10° E visible
20 Apr 8.7 04:10:04 64° W 05:24:57 89° N 07:01:57 10° E visible
20 Apr 5.8 21:53:07 10° W 22:00:34 87° N 23:07:32 10° E visible
21 Apr 8.6 02:55:37 10° W 04:26:53 88° N 06:32:10 10° E visible
21 Apr 5.4 21:21:30 10° W 21:27:28 87° N 21:43:09 28° E visible
22 Apr 8.3 02:20:28 10° W 03:22:20 88° N 05:53:56 10° E visible
22 Apr 4.7 20:42:49 10° W 20:47:22 87° N 21:05:49 16° E visible
23 Apr 8.0 01:38:20 10° W 02:32:35 80° ENE 05:05:57 10° E visible
23 Apr 8.3 07:19:29 10° W 10:00:17 88° S 10:16:54 10° E visible
23 Apr 3.9 19:56:51 10° W 20:00:07 88° N 20:14:14 10° E visible
24 Apr 7.5 00:49:08 10° W 01:46:09 63° E 04:05:36 10° E visible
24 Apr 8.8 06:24:00 19° W 09:00:18 89° S 09:25:11 10° E visible
24 Apr 7.2 23:52:39 10° W 00:52:20 45° E 02:46:29 10° E visible
25 Apr 9.2 05:28:40 35° W 07:42:40 90° S 08:24:43 10° E visible
25 Apr 6.5 22:48:37 10° W 22:59:00 87° N 00:50:42 10° E visible
26 Apr 9.0 04:25:35 56° W 05:50:35 89° N 07:14:22 10° E visible
26 Apr 5.5 21:36:42 10° W 21:43:01 86° N 21:56:29 33° E visible
27 Apr 8.3 02:27:31 10° W 03:27:13 88° N 05:51:52 10° E visible
27 Apr 4.1 20:16:26 10° W 20:20:02 86° N 20:36:34 10° E visible
28 Apr 7.6 01:01:57 10° W 01:54:53 67° E 04:11:47 10° E visible
28 Apr 8.8 06:25:56 17° W 08:57:33 89° S 09:23:18 10° E visible
28 Apr 6.9 23:28:46 10° W 23:42:02 87° N 23:42:44 86° NE visible
